When you browse on this site, cookies collect data to enhance your experience and personalize the content and advertising you see.
Visit our Privacy Policy to learn more. By continuing to use the site, you agree to this use of cookies and data.
  • In Hungary
  • List of Countries
  • For 7 days
  • Water Temperature
  • Satellite Maps
  • Weather Map
  • News
  • Weather Widgets
  • user-avatar
    Login

    Hourly Weather Morgan Hill

    Today, 20 July, Saturday

    Time Temperature Precipitation Wind Pressure Humidity
    00:00 +14°C° 0 mm 1 mps 740 mmHg 92%
    01:00 +14°C° 0 mm 1 mps 739 mmHg 91%
    02:00 +14°C° 0 mm 1 mps 740 mmHg 91%
    03:00 +14°C° 0 mm 1 mps 740 mmHg 91%
    04:00 +14°C° 0 mm 1 mps 740 mmHg 93%
    05:00 +15°C° 0 mm 1 mps 740 mmHg 90%
    06:00 +16°C° 0 mm 1 mps 740 mmHg 86%
    07:00 +18°C° 0 mm 1 mps 741 mmHg 83%
    08:00 +20°C° 0 mm 1 mps 741 mmHg 71%
    09:00 +23°C° 0 mm 1 mps 741 mmHg 59%
    10:00 +26°C° 0 mm 1 mps 741 mmHg 47%
    11:00 +27°C° 0 mm 2 mps 741 mmHg 44%
    12:00 +28°C° 0 mm 2 mps 740 mmHg 40%
    13:00 +30°C° 0 mm 3 mps 740 mmHg 37%
    14:00 +29°C° 0 mm 2 mps 740 mmHg 39%
    15:00 +29°C° 0 mm 2 mps 739 mmHg 41%
    16:00 +28°C° 0 mm 2 mps 739 mmHg 42%
    17:00 +26°C° 0 mm 2 mps 739 mmHg 51%
    18:00 +23°C° 0 mm 1 mps 739 mmHg 60%
    19:00 +21°C° 0 mm 1 mps 739 mmHg 68%
    20:00 +19°C° 0 mm 1 mps 739 mmHg 75%
    21:00 +16°C° 0 mm 1 mps 739 mmHg 82%
    22:00 +15°C° 0 mm 1 mps 739 mmHg 89%
    23:00 +14°C° 0 mm 1 mps 739 mmHg 89%

    Tomorrow, 21 July, Sunday

    Time Temperature Precipitation Wind Pressure Humidity
    00:00 +14°C° 0 mm 1 mps 739 mmHg 88%
    01:00 +13°C° 0 mm 0 mps 739 mmHg 88%
    02:00 +13°C° 0 mm 0 mps 739 mmHg 87%
    03:00 +13°C° 0 mm 0 mps 739 mmHg 86%
    04:00 +13°C° 0 mm 0 mps 739 mmHg 85%
    05:00 +15°C° 0 mm 0 mps 739 mmHg 78%
    06:00 +18°C° 0 mm 1 mps 739 mmHg 72%
    07:00 +20°C° 0 mm 1 mps 740 mmHg 65%
    08:00 +23°C° 0 mm 1 mps 740 mmHg 56%
    09:00 +26°C° 0 mm 1 mps 740 mmHg 47%
    10:00 +29°C° 0 mm 1 mps 741 mmHg 38%
    11:00 +30°C° 0 mm 2 mps 740 mmHg 36%
    12:00 +31°C° 0 mm 2 mps 740 mmHg 34%
    13:00 +32°C° 0 mm 2 mps 740 mmHg 32%
    14:00 +32°C° 0 mm 2 mps 740 mmHg 33%
    15:00 +31°C° 0 mm 2 mps 740 mmHg 34%
    16:00 +30°C° 0 mm 2 mps 740 mmHg 36%
    17:00 +27°C° 0 mm 2 mps 739 mmHg 45%
    18:00 +24°C° 0 mm 1 mps 739 mmHg 55%
    19:00 +21°C° 0 mm 1 mps 739 mmHg 64%
    20:00 +20°C° 0 mm 1 mps 739 mmHg 70%
    21:00 +18°C° 0 mm 1 mps 739 mmHg 76%
    22:00 +16°C° 0 mm 1 mps 740 mmHg 82%
    23:00 +16°C° 0 mm 1 mps 740 mmHg 83%

    Day after tomorrow, 22 July, Monday

    Time Temperature Precipitation Wind Pressure Humidity
    00:00 +15°C° 0 mm 1 mps 740 mmHg 83%
    01:00 +14°C° 0 mm 0 mps 740 mmHg 84%
    02:00 +14°C° 0 mm 0 mps 740 mmHg 83%
    03:00 +14°C° 0 mm 0 mps 740 mmHg 81%
    04:00 +14°C° 0 mm 0 mps 740 mmHg 80%
    05:00 +16°C° 0 mm 0 mps 740 mmHg 72%
    06:00 +18°C° 0 mm 0 mps 740 mmHg 64%
    07:00 +19°C° 0 mm 0 mps 741 mmHg 57%
    08:00 +25°C° 0 mm 1 mps 741 mmHg 48%
    09:00 +28°C° 0 mm 1 mps 741 mmHg 39%
    10:00 +31°C° 0 mm 1 mps 742 mmHg 30%
    11:00 +32°C° 0 mm 2 mps 742 mmHg 28%
    12:00 +34°C° 0 mm 2 mps 742 mmHg 26%
    13:00 +35°C° 0 mm 3 mps 742 mmHg 24%
    14:00 +35°C° 0 mm 3 mps 741 mmHg 25%
    15:00 +34°C° 0 mm 3 mps 741 mmHg 27%
    16:00 +33°C° 0 mm 3 mps 741 mmHg 29%
    17:00 +29°C° 0 mm 2 mps 741 mmHg 37%
    18:00 +26°C° 0 mm 2 mps 741 mmHg 45%
    19:00 +23°C° 0 mm 2 mps 741 mmHg 53%
    20:00 +21°C° 0 mm 1 mps 741 mmHg 57%
    21:00 +20°C° 0 mm 1 mps 741 mmHg 60%
    22:00 +18°C° 0 mm 1 mps 741 mmHg 63%
    23:00 +18°C° 0 mm 1 mps 741 mmHg 62%

    23 July, Tuesday

    Time Temperature Precipitation Wind Pressure Humidity
    00:00 +18°C° 0 mm 1 mps 741 mmHg 61%
    01:00 +15°C° 0 mm 0 mps 741 mmHg 61%
    02:00 +15°C° 0 mm 0 mps 741 mmHg 61%
    03:00 +15°C° 0 mm 0 mps 741 mmHg 61%
    04:00 +15°C° 0 mm 0 mps 741 mmHg 61%
    05:00 +17°C° 0 mm 0 mps 741 mmHg 56%
    06:00 +19°C° 0 mm 0 mps 742 mmHg 51%
    07:00 +21°C° 0 mm 0 mps 742 mmHg 45%
    08:00 +25°C° 0 mm 1 mps 743 mmHg 39%
    09:00 +28°C° 0 mm 1 mps 743 mmHg 33%
    10:00 +31°C° 0 mm 2 mps 743 mmHg 27%
    11:00 +32°C° 0 mm 2 mps 743 mmHg 26%
    12:00 +34°C° 0 mm 2 mps 743 mmHg 25%
    13:00 +35°C° 0 mm 3 mps 743 mmHg 24%
    14:00 +35°C° 0 mm 3 mps 742 mmHg 26%
    15:00 +34°C° 0 mm 3 mps 742 mmHg 28%
    16:00 +33°C° 0 mm 3 mps 741 mmHg 29%
    17:00 +29°C° 0 mm 3 mps 741 mmHg 36%
    18:00 +26°C° 0 mm 2 mps 741 mmHg 43%
    19:00 +23°C° 0 mm 2 mps 741 mmHg 49%
    20:00 +21°C° 0 mm 2 mps 741 mmHg 52%
    21:00 +20°C° 0 mm 1 mps 741 mmHg 55%
    22:00 +18°C° 0 mm 1 mps 741 mmHg 58%
    23:00 +18°C° 0 mm 1 mps 741 mmHg 58%

    24 July, Wednesday

    Time Temperature Precipitation Wind Pressure Humidity
    00:00 +16°C° 0 mm 0 mps 741 mmHg 57%
    01:00 +16°C° 0 mm 0 mps 741 mmHg 56%
    02:00 +16°C° 0 mm 0 mps 741 mmHg 55%
    03:00 +16°C° 0 mm 0 mps 741 mmHg 54%
    04:00 +15°C° 0 mm 0 mps 741 mmHg 53%
    05:00 +17°C° 0 mm 0 mps 741 mmHg 49%
    06:00 +19°C° 0 mm 0 mps 741 mmHg 45%
    07:00 +21°C° 0 mm 0 mps 742 mmHg 41%
    08:00 +26°C° 0 mm 1 mps 742 mmHg 35%
    09:00 +30°C° 0 mm 1 mps 742 mmHg 28%
    10:00 +33°C° 0 mm 1 mps 742 mmHg 22%
    11:00 +35°C° 0 mm 2 mps 741 mmHg 21%
    12:00 +36°C° 0 mm 2 mps 741 mmHg 20%
    13:00 +37°C° 0 mm 2 mps 741 mmHg 19%
    14:00 +37°C° 0 mm 2 mps 740 mmHg 21%
    15:00 +36°C° 0 mm 3 mps 740 mmHg 23%
    16:00 +35°C° 0 mm 3 mps 739 mmHg 25%
    17:00 +30°C° 0 mm 2 mps 739 mmHg 33%
    18:00 +27°C° 0 mm 2 mps 739 mmHg 42%
    19:00 +24°C° 0 mm 1 mps 739 mmHg 50%
    20:00 +22°C° 0 mm 1 mps 739 mmHg 56%
    21:00 +20°C° 0 mm 1 mps 739 mmHg 62%
    22:00 +18°C° 0 mm 1 mps 740 mmHg 68%
    23:00 +16°C° 0 mm 0 mps 739 mmHg 67%

    25 July, Thursday

    Time Temperature Precipitation Wind Pressure Humidity
    00:00 +15°C° 0 mm 0 mps 739 mmHg 67%
    01:00 +15°C° 0 mm 0 mps 739 mmHg 67%
    02:00 +15°C° 0 mm 0 mps 739 mmHg 66%
    03:00 +15°C° 0 mm 0 mps 739 mmHg 65%
    04:00 +15°C° 0 mm 0 mps 739 mmHg 65%
    05:00 +19°C° 0 mm 1 mps 739 mmHg 60%
    06:00 +20°C° 0 mm 1 mps 739 mmHg 55%
    07:00 +22°C° 0 mm 1 mps 740 mmHg 51%
    08:00 +25°C° 0 mm 1 mps 740 mmHg 43%
    09:00 +28°C° 0 mm 1 mps 740 mmHg 34%
    10:00 +31°C° 0 mm 2 mps 740 mmHg 26%
    11:00 +34°C° 0 mm 2 mps 740 mmHg 24%
    12:00 +35°C° 0 mm 2 mps 740 mmHg 22%
    13:00 +36°C° 0 mm 3 mps 740 mmHg 20%
    14:00 +35°C° 0 mm 3 mps 739 mmHg 23%
    15:00 +34°C° 0 mm 3 mps 739 mmHg 26%
    16:00 +33°C° 0 mm 3 mps 739 mmHg 29%
    17:00 +28°C° 0 mm 2 mps 739 mmHg 39%
    18:00 +25°C° 0 mm 2 mps 739 mmHg 49%
    19:00 +22°C° 0 mm 1 mps 739 mmHg 59%
    20:00 +20°C° 0 mm 1 mps 739 mmHg 64%
    21:00 +19°C° 0 mm 1 mps 739 mmHg 69%
    22:00 +18°C° 0 mm 1 mps 739 mmHg 74%
    23:00 +16°C° 0 mm 1 mps 739 mmHg 73%
    Show more